• In Österreich
  • Länderverzeichnis
  • Für 7 Tage
  • Wassertemperatur
  • Satellitenkarten
  • Wetterkarte
  • News
  • Widgets
  • user-avatar
    Anmelden

    Stündliche Wetter Avignon

    Heute, 19 November, Sonntag

    Zeit Temperatur Niederschläge Wind Luftdruck Luftfeuchtigkeit
    00:00 +4°C° 0 mm 4 m/S 763 mmHg 72%
    01:00 +4°C° 0 mm 4 m/S 763 mmHg 70%
    02:00 +3°C° 0 mm 5 m/S 763 mmHg 69%
    03:00 +3°C° 0 mm 5 m/S 762 mmHg 67%
    04:00 +3°C° 0 mm 5 m/S 762 mmHg 65%
    05:00 +3°C° 0 mm 5 m/S 762 mmHg 62%
    06:00 +3°C° 0 mm 5 m/S 762 mmHg 61%
    07:00 +5°C° 0 mm 6 m/S 762 mmHg 57%
    08:00 +7°C° 0 mm 6 m/S 762 mmHg 54%
    09:00 +9°C° 0 mm 7 m/S 762 mmHg 51%
    10:00 +10°C° 0 mm 7 m/S 762 mmHg 50%
    11:00 +12°C° 0 mm 8 m/S 761 mmHg 50%
    12:00 +15°C° 0 mm 8 m/S 761 mmHg 50%
    13:00 +13°C° 0 mm 8 m/S 761 mmHg 52%
    14:00 +13°C° 0 mm 8 m/S 761 mmHg 54%
    15:00 +13°C° 0 mm 8 m/S 761 mmHg 56%
    16:00 +11°C° 0 mm 7 m/S 762 mmHg 61%
    17:00 +10°C° 0 mm 7 m/S 762 mmHg 66%
    18:00 +9°C° 0 mm 6 m/S 762 mmHg 70%
    19:00 +8°C° 0 mm 6 m/S 763 mmHg 72%
    20:00 +8°C° 0 mm 6 m/S 763 mmHg 73%
    21:00 +8°C° 0 mm 6 m/S 763 mmHg 74%
    22:00 +7°C° 0 mm 6 m/S 764 mmHg 74%
    23:00 +7°C° 0 mm 6 m/S 764 mmHg 75%

    Morgen, 20 November, Montag

    Zeit Temperatur Niederschläge Wind Luftdruck Luftfeuchtigkeit
    00:00 +7°C° 0 mm 5 m/S 764 mmHg 75%
    01:00 +6°C° 0 mm 5 m/S 764 mmHg 75%
    02:00 +6°C° 0 mm 5 m/S 764 mmHg 75%
    03:00 +6°C° 0 mm 5 m/S 764 mmHg 74%
    04:00 +5°C° 0 mm 5 m/S 764 mmHg 73%
    05:00 +5°C° 0 mm 4 m/S 764 mmHg 72%
    06:00 +5°C° 0 mm 4 m/S 764 mmHg 70%
    07:00 +6°C° 0 mm 4 m/S 764 mmHg 64%
    08:00 +7°C° 0 mm 4 m/S 765 mmHg 58%
    09:00 +10°C° 0 mm 4 m/S 765 mmHg 52%
    10:00 +11°C° 0 mm 4 m/S 764 mmHg 46%
    11:00 +13°C° 0 mm 4 m/S 764 mmHg 41%
    12:00 +14°C° 0 mm 3 m/S 764 mmHg 36%
    13:00 +14°C° 0 mm 3 m/S 763 mmHg 39%
    14:00 +14°C° 0 mm 3 m/S 763 mmHg 41%
    15:00 +15°C° 0 mm 2 m/S 763 mmHg 43%
    16:00 +13°C° 0 mm 2 m/S 764 mmHg 47%
    17:00 +10°C° 0 mm 2 m/S 764 mmHg 51%
    18:00 +9°C° 0 mm 2 m/S 764 mmHg 55%
    19:00 +8°C° 0 mm 2 m/S 764 mmHg 56%
    20:00 +8°C° 0 mm 2 m/S 764 mmHg 57%
    21:00 +8°C° 0 mm 2 m/S 765 mmHg 57%
    22:00 +8°C° 0 mm 2 m/S 765 mmHg 57%
    23:00 +7°C° 0 mm 2 m/S 764 mmHg 56%

    übermorgen, 21 November, Dienstag

    Zeit Temperatur Niederschläge Wind Luftdruck Luftfeuchtigkeit
    00:00 +7°C° 0 mm 2 m/S 764 mmHg 56%
    01:00 +7°C° 0 mm 2 m/S 764 mmHg 55%
    02:00 +7°C° 0 mm 2 m/S 764 mmHg 54%
    03:00 +7°C° 0 mm 2 m/S 763 mmHg 53%
    04:00 +7°C° 0 mm 2 m/S 763 mmHg 53%
    05:00 +7°C° 0 mm 2 m/S 763 mmHg 53%
    06:00 +7°C° 0 mm 2 m/S 763 mmHg 53%
    07:00 +8°C° 0 mm 2 m/S 763 mmHg 51%
    08:00 +10°C° 0 mm 2 m/S 763 mmHg 48%
    09:00 +12°C° 0 mm 2 m/S 763 mmHg 46%
    10:00 +14°C° 0 mm 2 m/S 763 mmHg 43%
    11:00 +16°C° 0 mm 2 m/S 762 mmHg 41%
    12:00 +17°C° 0 mm 2 m/S 762 mmHg 38%
    13:00 +17°C° 0 mm 2 m/S 761 mmHg 42%
    14:00 +18°C° 0 mm 1 m/S 761 mmHg 45%
    15:00 +16°C° 0 mm 1 m/S 761 mmHg 49%
    16:00 +15°C° 0 mm 1 m/S 761 mmHg 54%
    17:00 +13°C° 0 mm 1 m/S 762 mmHg 58%
    18:00 +11°C° 0 mm 1 m/S 762 mmHg 63%
    19:00 +11°C° 0 mm 1 m/S 762 mmHg 63%
    20:00 +11°C° 0 mm 1 m/S 762 mmHg 64%
    21:00 +10°C° 0 mm 1 m/S 762 mmHg 65%
    22:00 +10°C° 0 mm 1 m/S 762 mmHg 65%
    23:00 +10°C° 0 mm 1 m/S 762 mmHg 65%

    22 November, Mittwoch

    Zeit Temperatur Niederschläge Wind Luftdruck Luftfeuchtigkeit
    00:00 +9°C° 0 mm 1 m/S 762 mmHg 66%
    01:00 +9°C° 0 mm 1 m/S 762 mmHg 66%
    02:00 +9°C° 0 mm 1 m/S 762 mmHg 66%
    03:00 +9°C° 0 mm 1 m/S 762 mmHg 66%
    04:00 +9°C° 0 mm 1 m/S 762 mmHg 66%
    05:00 +8°C° 0 mm 2 m/S 762 mmHg 66%
    06:00 +7°C° 0 mm 2 m/S 762 mmHg 66%
    07:00 +9°C° 0 mm 2 m/S 762 mmHg 62%
    08:00 +10°C° 0 mm 2 m/S 762 mmHg 59%
    09:00 +12°C° 0 mm 2 m/S 762 mmHg 55%
    10:00 +14°C° 0 mm 2 m/S 762 mmHg 54%
    11:00 +15°C° 0 mm 2 m/S 761 mmHg 53%
    12:00 +17°C° 0 mm 3 m/S 761 mmHg 53%
    13:00 +16°C° 0 mm 3 m/S 761 mmHg 58%
    14:00 +16°C° 0 mm 3 m/S 761 mmHg 64%
    15:00 +16°C° 0 mm 2 m/S 761 mmHg 70%
    16:00 +14°C° 0,1 mm 3 m/S 761 mmHg 75%
    17:00 +13°C° 0,1 mm 3 m/S 761 mmHg 81%
    18:00 +12°C° 0,1 mm 3 m/S 762 mmHg 87%
    19:00 +12°C° 0,1 mm 3 m/S 762 mmHg 87%
    20:00 +12°C° 0,1 mm 3 m/S 762 mmHg 87%
    21:00 +12°C° 0,1 mm 3 m/S 762 mmHg 88%
    22:00 +12°C° 0 mm 3 m/S 762 mmHg 88%
    23:00 +11°C° 0 mm 3 m/S 762 mmHg 89%

    23 November, Donnerstag

    Zeit Temperatur Niederschläge Wind Luftdruck Luftfeuchtigkeit
    00:00 +11°C° 0 mm 3 m/S 762 mmHg 89%
    01:00 +11°C° 0 mm 3 m/S 762 mmHg 89%
    02:00 +11°C° 0 mm 3 m/S 762 mmHg 89%
    03:00 +10°C° 0 mm 3 m/S 762 mmHg 89%
    04:00 +10°C° 0 mm 3 m/S 762 mmHg 89%
    05:00 +10°C° 0 mm 3 m/S 763 mmHg 89%
    06:00 +10°C° 0 mm 3 m/S 763 mmHg 89%
    07:00 +11°C° 0 mm 3 m/S 763 mmHg 85%
    08:00 +12°C° 0 mm 3 m/S 763 mmHg 81%
    09:00 +13°C° 0 mm 3 m/S 764 mmHg 77%
    10:00 +14°C° 0 mm 3 m/S 764 mmHg 73%
    11:00 +16°C° 0 mm 3 m/S 763 mmHg 70%
    12:00 +17°C° 0 mm 3 m/S 763 mmHg 67%
    13:00 +17°C° 0 mm 3 m/S 763 mmHg 68%
    14:00 +17°C° 0 mm 3 m/S 763 mmHg 69%
    15:00 +17°C° 0 mm 3 m/S 763 mmHg 70%
    16:00 +15°C° 0 mm 2 m/S 763 mmHg 76%
    17:00 +14°C° 0 mm 2 m/S 764 mmHg 81%
    18:00 +13°C° 0 mm 2 m/S 764 mmHg 87%
    19:00 +12°C° 0 mm 2 m/S 764 mmHg 87%
    20:00 +12°C° 0 mm 2 m/S 765 mmHg 88%
    21:00 +12°C° 0 mm 2 m/S 765 mmHg 89%
    22:00 +10°C° 0 mm 2 m/S 765 mmHg 89%
    23:00 +10°C° 0 mm 2 m/S 765 mmHg 89%

    24 November, Freitag

    Zeit Temperatur Niederschläge Wind Luftdruck Luftfeuchtigkeit
    00:00 +10°C° 0 mm 2 m/S 765 mmHg 89%
    01:00 +10°C° 0 mm 2 m/S 765 mmHg 88%
    02:00 +10°C° 0 mm 2 m/S 764 mmHg 88%
    03:00 +10°C° 0 mm 2 m/S 764 mmHg 87%
    04:00 +9°C° 0 mm 2 m/S 764 mmHg 87%
    05:00 +9°C° 0 mm 3 m/S 764 mmHg 86%
    06:00 +9°C° 0 mm 3 m/S 764 mmHg 86%
    07:00 +10°C° 0 mm 3 m/S 764 mmHg 81%
    08:00 +11°C° 0 mm 3 m/S 764 mmHg 77%
    09:00 +13°C° 0 mm 4 m/S 764 mmHg 72%
    10:00 +14°C° 0 mm 4 m/S 764 mmHg 67%
    11:00 +15°C° 0 mm 4 m/S 763 mmHg 62%
    12:00 +16°C° 0 mm 5 m/S 763 mmHg 57%
    13:00 +16°C° 0 mm 5 m/S 763 mmHg 58%
    14:00 +17°C° 0 mm 4 m/S 763 mmHg 60%
    15:00 +15°C° 0 mm 4 m/S 762 mmHg 61%
    16:00 +14°C° 0 mm 4 m/S 762 mmHg 66%
    17:00 +13°C° 0 mm 4 m/S 763 mmHg 70%
    18:00 +12°C° 0 mm 4 m/S 763 mmHg 74%
    19:00 +12°C° 0 mm 4 m/S 763 mmHg 75%
    20:00 +11°C° 0 mm 4 m/S 763 mmHg 75%
    21:00 +11°C° 0 mm 4 m/S 763 mmHg 75%
    22:00 +11°C° 0 mm 4 m/S 763 mmHg 74%
    23:00 +11°C° 0 mm 4 m/S 762 mmHg 73%
    Mehr zeigen